Starlink 11514

operational
NORAD ID: 62514 Int'l Des: 2025-004 Owner: SPXS Country: US Constellation: starlink
LEOCIRCULAR

关于 Starlink 11514

正在加载描述...

实时位置

正在加载3D地球...

即将过境

高度历史

Altitude vs Time

uPlot chart will show altitude changes over time

两行轨道根数

1 62514U 25004D 26035.01682423 .00257979 00000-0 19463-2 0 9995
2 62514 42.9996 273.6113 0001242 303.4235 56.6514 15.70912310 61914
Epoch: Feb 4, 2026 • Age: 21 hours

当前状态

高度 354.1 km
速度 7.70 km/s
星下点 1.51°N, 168.19°E
发射日期 Jan 8, 2025
运行时间 1 years
类型 internet

技术详情

分类 Payload
质量 960.00 kg
干质量 910.00 kg
总质量 960.00 kg
长度 0.30 m
直径 4.10 m
跨度 29.00 m
形状 Box + pan
制造商 SPXS
平台类型 Starlink V2MD
阶段状态 In Orbit
所有者/国家 SPXS/US

大型星座

Loading constellations...